Погода в Беломестной Двойне

Россия / Тамбовская область     52°41′45″N   41°03′44″E
темп.,
°C
ветер,
м/с
пор.,
м/с
влажн.,
%
обл.,
%
осадки,
мм/ч
давл.,
гПа
погр.,
м
17 сентября, пт
пт1700:00+7з117062 0.0 101910
03:00+5зсз22805 0.0 102018
06:00+5з2285100 0.0 101917
09:00+10зсз1160100 0.0 1019383
12:00+14зсз1246100 0.0 10181654
15:00+13с2246100 0.0 10171363
18:00+12св4553100 0.0 1017363
21:00+10всв4758100 0.0 1018347
18 сентября, сб
сб1800:00+9всв4758100 0.0 1019460
03:00+8всв4861100 0.0 1020280
06:00+6всв4865100 0.0 1021264
09:00+9в6854100 0.0 1021642
12:00+12в5638100 0.0 10211236
15:00+13в5634100 0.0 10201363
18:00+11в4837100 0.0 1021398
21:00+10в5941100 0.0 1021401
19 сентября, вс
вс1900:00+10вюв51144100 0.0 1021682
03:00+9вюв61158100 0.2 1020601
06:00+7в61268100 0.8 1020464
09:00+8вюв71371100 1.1 1020484
12:00+8вюв71474100 1.1 1019547
15:00+7в81689100 6.4 1018570
18:00+7в91791100 6.6 1016855
21:00+8вюв81593100 12.8 1014879
20 сентября, пн
пн2000:00+8вюв71392100 4.1 1013698
03:00+8вюв61190100 4.3 1012432
06:00+9в5995100 0.1 1011329
09:00+9в5994100 0.3 1011336
12:00+12в5988100 0.0 1010394
15:00+12вюв61094100 0.2 1010532
18:00+12вюв61097100 0.9 1010516
21:00+12вюв4698100 1.3 1010232
21 сентября, вт
вт2100:00+12вюв4596100 0.0 1010265
03:00+12ю3798100 0.6 1010357
06:00+11ю2597100 3.5 1009333
09:00+11зюз4588100 4.3 1010427
12:00+13зюз4566100 0.1 10101041
15:00+12юз6771100 0.3 10111098
18:00+10юз5879100 0.1 1012781
21:00+9юз4781100 0.1 1013739